Tracking 33197 objects as of 18-Feb-2026
HD Live streaming from Space Station
objects crossing your sky now

CZ-2C DEB

Track CZ-2C DEB now!
10-day predictions


NORAD ID: 43534
Int'l Code: 2018-056F
Perigee: 484.0 km
Apogee: 501.0 km
Inclination: 98.1 °
Period: 94.3 minutes
Semi major axis: 6863 km
RCS: Unknown
Launch date: July 9, 2018
Source: People's Republic of China (PRC)
Launch site: Jiuquan Satellite Launch Center, China (JSC)

Note: This is SATELLITE DEBRIS
Your satellite tracking list
Your tracking list is empty




NASA's NSSDC Master Catalog

Two Line Element Set (TLE):
1 43534U 18056F   26049.06300148  .00018812  00000-0  71448-3 0  9999
2 43534  98.1159 228.9404 0012412  71.3382 288.9201 15.26809464415596
Source of the keplerian elements: AFSPC